Date,TemperatureHighF,TemperatureAvgF,TemperatureLowF,DewpointHighF,DewpointAvgF,DewpointLowF,HumidityHigh,HumidityAvg,HumidityLow,PressureMaxIn,PressureMinIn,WindSpeedMaxMPH,WindSpeedAvgMPH,GustSpeedMaxMPH,PrecipitationSumIn
2012-1-1,65.3,48.8,33.7,52.1,39.7,29.6,92,73,44,30.08,29.78,13,2,19,0.06
2012-1-2,46.0,38.3,26.9,28.4,16.3,9.4,55,41,28,30.02,29.88,11,3,20,0.00
2012-1-3,31.6,26.1,21.3,9.0,6.0,2.2,58,42,29,30.30,30.02,17,5,27,0.00
2012-1-4,42.3,28.8,18.3,14.5,10.6,7.2,72,48,26,30.34,30.02,8,1,13,0.00
2012-1-5,54.4,40.1,26.6,26.4,20.7,12.9,66,47,30,30.07,29.97,10,1,16,0.00
2012-1-6,66.1,45.8,30.6,31.1,27.2,24.5,79,52,22,30.03,29.89,7,1,11,0.00
2012-1-7,68.4,53.0,36.5,44.5,37.2,29.1,76,56,41,29.99,29.86,10,1,18,0.00
2012-1-8,56.0,52.0,42.1,43.5,37.1,28.4,84,58,38,30.19,29.97,7,0,9,0.03
2012-1-9,45.5,43.2,41.8,42.2,41.1,40.0,95,92,83,30.18,30.00,3,0,8,0.10
2012-1-10,55.7,46.3,39.6,42.8,39.4,35.4,95,79,47,30.06,29.94,3,0,10,0.00
2012-1-11,50.1,46.7,43.3,48.7,44.5,40.0,95,92,83,29.93,29.47,5,1,17,1.00
2012-1-12,57.5,49.1,41.3,47.3,43.4,29.6,95,82,44,29.59,29.43,14,2,19,0.01
2012-1-13,50.1,35.1,28.4,30.8,17.4,14.6,59,49,36,30.02,29.45,17,5,26,0.00
2012-1-14,42.8,32.9,25.0,21.6,16.6,12.4,68,52,30,30.16,30.02,10,2,16,0.00
2012-1-15,44.1,34.6,25.8,27.5,22.9,19.0,86,64,37,30.50,30.05,6,1,13,0.00
2012-1-16,48.2,35.8,24.4,30.9,24.6,18.9,84,65,45,30.54,30.27,5,0,13,0.00
2012-1-17,62.0,51.3,38.2,53.8,43.1,31.1,91,74,61,30.26,29.76,10,2,20,0.08
2012-1-18,55.4,44.3,32.9,52.5,28.5,17.7,90,55,33,30.08,29.79,7,2,18,0.01
2012-1-19,46.4,36.5,23.9,28.7,20.9,14.5,72,54,39,30.17,30.00,5,1,12,0.00
2012-1-20,55.4,43.4,30.7,42.3,33.7,26.1,94,71,43,30.10,30.00,6,0,7,0.25
2012-1-21,51.1,46.2,37.6,49.4,44.4,34.4,95,94,87,30.13,29.79,6,1,18,0.13
2012-1-22,37.0,34.0,31.6,33.5,30.6,27.3,94,87,82,30.32,30.13,11,2,13,0.00
2012-1-23,43.5,38.7,34.3,42.2,37.3,32.8,95,95,94,30.27,29.96,3,0,7,0.09
2012-1-24,61.2,47.9,39.3,49.3,42.7,36.6,96,84,47,30.19,29.97,6,1,10,0.00
2012-1-25,61.8,45.3,34.4,38.2,33.8,30.2,92,68,31,30.28,30.13,4,0,10,0.00
2012-1-26,66.1,55.0,40.3,57.5,48.3,35.6,92,78,67,30.13,29.64,5,1,18,0.00
2012-1-27,64.3,57.9,40.6,59.0,45.9,31.8,92,66,42,29.97,29.50,14,4,26,0.05
2012-1-28,59.0,44.6,30.9,36.2,31.2,22.6,91,62,39,30.17,29.96,11,2,18,0.00
2012-1-29,50.7,39.8,26.3,22.4,15.9,9.3,77,41,19,30.32,30.17,7,1,15,0.00
2012-1-30,58.3,44.7,33.1,23.8,19.4,12.9,54,38,23,30.36,30.20,11,2,14,0.00
2012-1-31,67.8,48.8,33.7,32.6,27.3,22.9,67,46,25,30.32,30.17,6,1,16,0.00
2012-2-1,68.3,52.4,42.2,51.0,40.6,30.9,93,66,44,30.18,29.99,11,1,13,0.15
2012-2-2,66.0,55.3,44.6,51.0,42.1,26.2,95,66,28,30.26,29.93,8,2,19,0.01
2012-2-3,56.6,45.1,35.8,33.0,29.7,26.0,82,57,31,30.43,30.26,7,1,12,0.00
2012-2-4,51.1,45.0,38.0,47.2,38.9,30.1,94,80,56,30.30,29.96,4,1,11,0.16
2012-2-5,48.5,41.4,34.6,47.1,39.1,32.2,95,92,82,30.20,29.93,5,1,11,0.13
2012-2-6,49.1,40.0,33.4,34.7,32.3,29.9,94,76,50,30.25,30.09,2,0,7,0.00
2012-2-7,56.2,42.0,30.7,32.2,28.3,22.8,87,63,28,30.14,30.06,3,0,11,0.00
2012-2-8,46.0,38.6,29.0,36.0,30.3,25.4,90,73,58,30.16,30.07,7,1,11,0.00
2012-2-9,50.2,40.5,32.1,28.0,25.8,23.8,79,57,36,30.24,30.12,6,1,11,0.00
2012-2-10,47.9,39.3,28.8,36.2,32.1,25.4,90,76,63,30.15,29.81,2,0,12,0.00
2012-2-11,46.4,36.7,22.9,36.8,20.1,-0.6,87,54,27,30.03,29.71,22,5,32,0.00
2012-2-12,39.9,29.3,19.7,12.2,6.0,-0.2,48,37,26,30.23,30.03,14,5,24,0.00
2012-2-13,50.7,36.5,21.1,20.7,14.2,10.1,74,43,21,30.25,30.05,6,1,11,0.00
2012-2-14,53.9,45.6,38.6,38.9,28.8,18.5,72,52,42,30.05,29.93,11,2,14,0.00
2012-2-15,61.0,47.0,32.7,38.2,32.2,25.9,93,61,27,30.22,30.01,5,0,10,0.00
2012-2-16,58.3,49.3,41.1,50.2,41.8,32.1,95,77,42,30.19,29.95,6,0,12,0.11
2012-2-17,60.7,50.3,40.9,46.0,37.5,29.0,95,65,33,30.07,29.97,7,1,11,0.00
2012-2-18,62.9,50.6,36.5,41.3,32.6,25.3,76,53,27,30.07,29.88,6,1,11,0.00
2012-2-19,51.3,39.8,31.8,43.6,34.2,29.8,92,81,54,29.91,29.72,8,2,17,0.27
2012-2-20,47.4,36.5,28.2,32.6,27.7,22.5,93,73,39,30.30,29.90,6,1,12,0.24
2012-2-21,55.4,41.5,27.0,41.1,31.9,23.4,89,71,45,30.28,29.92,8,1,16,0.00
2012-2-22,67.1,54.3,39.8,47.3,41.7,36.2,92,66,34,29.92,29.48,8,2,32,0.14
2012-2-23,71.1,56.8,43.8,54.9,49.5,42.0,95,78,51,29.61,29.48,10,1,22,0.04
2012-2-24,77.9,64.5,44.6,62.0,50.6,21.9,88,62,34,29.80,29.34,26,5,29,0.21
2012-2-25,49.6,41.7,33.1,23.4,17.7,14.9,54,39,25,30.28,29.81,19,6,34,0.00
2012-2-26,52.9,38.1,24.2,22.7,19.6,15.4,83,51,25,30.45,30.27,4,0,11,0.00
2012-2-27,50.8,42.2,31.8,46.9,36.3,22.3,93,80,61,30.42,30.26,6,0,7,0.03
2012-2-28,66.4,52.8,38.2,46.7,34.9,25.5,95,58,22,30.36,30.20,6,1,11,0.00
2012-2-29,67.1,57.5,48.2,59.4,50.4,37.4,94,77,62,30.20,29.73,7,2,22,0.12
2012-3-1,76.5,65.0,47.7,60.0,44.6,22.4,92,55,17,29.81,29.66,13,3,22,0.00
2012-3-2,55.1,49.4,41.5,51.8,42.7,31.3,95,78,60,29.94,29.61,6,1,11,0.01
2012-3-3,59.0,54.2,50.5,54.9,44.2,25.2,95,72,35,29.69,29.46,8,1,15,0.38
2012-3-4,51.0,48.0,45.5,30.8,27.3,23.8,52,44,39,29.68,29.60,4,1,11,0.00
2012-3-19,62.9,62.2,61.3,57.4,56.6,55.9,86,82,79,30.08,30.07,0,0,2,0.00
2012-3-20,82.2,67.3,55.3,62.2,57.8,53.3,95,75,44,30.17,30.01,6,0,10,0.33
2012-3-21,76.1,65.1,55.1,62.8,57.7,53.4,95,79,51,30.23,30.11,5,0,10,0.01
2012-3-22,78.3,66.8,57.5,61.5,58.4,55.5,94,77,50,30.19,30.05,7,1,12,0.00
2012-3-23,83.4,68.7,55.7,63.4,58.5,53.7,94,73,42,30.06,29.88,5,1,13,0.16
2012-3-24,75.1,63.8,55.6,64.3,59.6,49.0,94,87,47,29.87,29.64,7,1,19,0.63
2012-3-25,66.0,58.8,54.1,56.4,54.1,51.3,95,85,61,29.75,29.63,10,1,12,0.26
2012-3-26,75.4,64.2,53.8,54.9,44.7,21.2,89,54,23,30.06,29.74,10,1,18,0.00
2012-3-27,61.2,51.3,40.1,33.6,27.0,20.6,57,40,25,30.29,30.07,6,1,11,0.00
2012-3-28,75.6,62.0,45.1,58.2,49.2,31.6,83,64,47,30.17,29.78,12,2,18,0.00
2012-3-29,80.1,69.4,56.0,54.7,44.0,32.4,70,45,18,29.87,29.75,12,2,19,0.00
2012-3-30,74.0,63.1,51.3,56.4,48.8,40.5,78,61,42,29.99,29.75,7,1,11,0.00
2012-3-31,76.1,66.7,60.9,61.3,57.3,47.4,93,73,51,29.76,29.62,7,1,14,0.10
2012-4-1,72.3,63.0,53.8,53.8,50.2,45.3,86,65,38,29.84,29.61,6,1,10,0.00
2012-4-2,78.8,66.1,54.1,60.1,53.8,42.9,89,66,43,29.89,29.58,13,1,14,0.07
2012-4-3,77.2,63.0,45.1,61.2,49.0,37.4,92,64,30,29.96,29.69,5,0,11,0.44
2012-4-4,83.8,67.9,58.6,63.6,59.3,56.0,93,77,42,29.76,29.55,7,0,29,0.05
2012-4-5,64.2,58.1,47.6,61.3,47.5,37.9,93,70,42,29.78,29.58,5,1,12,0.10
2012-4-6,62.0,52.5,44.6,43.9,37.7,26.7,90,62,27,30.05,29.77,7,1,16,0.16
2012-4-7,67.1,54.3,39.1,38.2,31.6,23.8,80,47,21,30.23,30.05,5,0,13,0.00
2012-4-8,75.1,60.9,41.9,41.9,35.6,27.0,80,44,19,30.10,29.86,6,1,14,0.00
2012-4-9,72.3,62.2,44.3,38.2,31.4,27.5,70,33,20,30.00,29.77,9,1,17,0.00
2012-4-10,73.2,61.0,45.5,38.1,32.1,21.1,72,36,22,29.88,29.70,14,2,22,0.00
2012-4-11,54.8,48.5,38.8,28.4,23.8,20.6,59,39,27,30.11,29.78,12,2,18,0.00
2012-4-12,60.7,47.4,33.8,34.8,28.7,23.6,74,51,27,30.19,30.06,7,1,10,0.00
2012-4-13,66.4,53.1,38.9,39.2,35.3,31.1,82,55,29,30.21,30.09,5,0,11,0.00
2012-4-14,74.0,60.2,44.9,47.4,40.4,36.8,78,52,29,30.26,30.09,6,1,17,0.00
2012-4-15,80.3,67.6,57.0,60.4,56.9,48.3,91,71,46,30.15,30.04,6,1,12,0.00
2012-4-16,84.0,71.9,58.7,60.8,57.8,55.0,88,64,40,30.10,29.98,7,0,14,0.00
2012-4-17,82.6,70.3,58.4,62.1,55.9,49.6,89,63,38,30.10,29.99,5,0,13,0.23
2012-4-18,59.5,55.0,51.9,51.8,49.2,47.2,91,81,65,30.13,30.01,7,1,12,0.17
2012-4-19,64.0,56.5,51.1,52.9,50.5,48.5,91,81,64,30.05,29.96,5,0,8,0.01
2012-4-20,72.5,61.6,52.0,57.8,53.8,49.4,93,77,54,29.96,29.79,2,0,6,0.00
2012-4-21,79.8,66.5,56.3,61.9,57.5,54.0,94,76,45,29.80,29.59,6,0,11,0.50
2012-4-22,52.9,50.2,46.8,50.6,47.0,41.9,92,89,83,29.53,29.45,5,1,14,0.10
2012-4-23,52.8,46.6,41.2,42.4,34.8,29.8,85,64,41,29.65,29.44,11,2,17,0.04
2012-4-24,62.6,51.4,37.3,37.8,29.6,23.0,74,47,24,29.75,29.63,13,2,27,0.03
2012-4-25,68.1,55.2,43.6,52.1,46.6,37.4,89,74,51,29.86,29.76,6,0,8,0.02
2012-4-26,77.2,63.8,52.5,62.6,57.4,50.2,94,81,54,29.81,29.68,10,1,17,0.01
2012-4-27,76.0,66.5,56.6,60.5,51.6,40.1,90,62,28,30.03,29.75,5,0,12,0.01
2012-4-28,57.6,55.5,52.2,49.6,45.4,42.5,82,69,59,30.14,30.01,6,1,12,0.22
2012-4-29,79.4,66.4,52.6,62.6,56.4,49.6,92,72,52,30.12,30.02,3,0,9,0.00
2012-4-30,79.4,69.9,61.2,66.1,62.6,57.4,93,79,60,30.16,30.00,4,0,12,0.00
2012-5-1,86.3,74.9,65.2,69.2,65.6,62.0,90,74,51,30.06,29.94,3,0,8,0.00
2012-5-2,90.5,77.8,65.6,69.1,64.8,61.8,88,66,41,30.04,29.95,4,0,10,0.00
2012-5-3,90.3,78.2,66.9,69.8,64.4,61.2,83,64,43,30.05,29.95,3,0,7,0.00
2012-5-4,89.0,76.5,64.5,67.0,61.6,55.5,91,63,35,29.99,29.83,5,0,13,0.00
2012-5-5,85.9,72.9,64.0,67.8,63.7,60.0,88,74,43,29.83,29.71,5,0,12,0.07
2012-5-6,75.6,69.0,62.3,63.3,62.0,59.3,90,79,63,29.97,29.81,6,1,11,0.00
2012-5-7,78.1,69.0,60.9,62.1,59.1,57.1,93,72,50,30.00,29.88,3,0,7,0.00
2012-5-8,76.0,69.3,63.4,66.5,62.8,58.3,91,80,65,29.92,29.76,3,0,8,0.07
2012-5-9,72.8,64.8,56.2,66.4,61.8,53.3,94,90,78,29.79,29.62,3,0,12,1.18
2012-5-10,72.3,61.4,52.3,52.8,47.6,41.5,89,63,34,29.94,29.67,6,1,12,0.00
2012-5-11,73.5,60.3,45.7,45.8,41.4,35.6,85,54,27,30.17,29.94,4,0,11,0.00
2012-5-12,76.5,63.5,47.7,54.1,48.4,41.7,87,61,29,30.28,30.16,4,0,6,0.00
2012-5-13,72.5,64.0,55.0,62.9,58.2,51.6,94,82,63,30.18,30.03,2,0,7,0.33
2012-5-14,69.9,65.0,61.5,67.4,62.9,59.5,95,93,87,30.02,29.85,4,0,12,1.42
2012-5-15,79.8,69.1,60.2,67.1,63.2,58.5,95,83,57,29.93,29.84,3,0,5,0.03
2012-5-16,81.4,72.0,64.5,66.6,63.1,59.7,94,75,51,29.90,29.80,2,0,10,0.10
2012-5-17,80.7,71.5,60.9,63.9,60.4,56.6,92,70,49,29.97,29.84,7,1,14,0.00
2012-5-18,73.9,66.8,61.6,60.3,53.1,44.4,85,63,42,30.05,29.95,7,1,11,0.00
2012-5-19,75.3,65.3,53.1,52.1,50.2,47.8,87,60,38,30.10,30.00,6,1,11,0.00
2012-5-20,81.2,69.1,55.3,58.7,53.7,50.1,85,61,35,30.07,29.96,11,1,14,0.00
2012-5-21,81.6,72.7,64.7,62.5,60.5,58.5,85,67,47,29.97,29.78,5,0,7,0.00
2012-5-22,83.8,71.8,62.6,67.7,62.8,58.9,91,75,50,29.83,29.70,2,0,6,0.15
2012-5-23,78.3,69.6,63.5,64.7,62.2,59.2,93,78,59,29.87,29.73,2,0,6,0.11
2012-5-24,82.2,70.9,62.4,68.2,63.4,58.0,93,79,45,29.98,29.86,3,0,7,0.00
2012-5-25,87.2,75.8,64.0,69.3,64.4,59.6,94,71,41,30.05,29.97,3,0,7,0.00
2012-5-26,85.9,76.5,66.0,69.6,65.5,61.8,93,71,45,30.08,29.99,5,1,10,0.00
2012-5-27,85.3,75.7,64.3,68.2,65.4,61.6,93,72,49,30.07,29.98,3,0,11,0.00
2012-5-28,87.8,77.4,70.6,70.8,67.7,65.7,91,74,48,30.02,29.90,3,0,7,0.00
2012-5-29,85.9,75.2,69.8,72.4,68.7,67.1,93,81,57,29.93,29.75,3,0,11,0.10
2012-5-30,85.1,74.7,67.4,68.6,63.9,54.8,94,72,38,29.75,29.65,8,1,14,0.02
2012-5-31,91.6,77.3,62.3,63.6,60.4,56.6,88,59,32,29.81,29.72,3,0,10,0.00
2012-6-1,84.9,71.7,62.9,70.1,64.9,60.5,93,80,55,29.78,29.60,5,0,17,0.65
2012-6-2,75.6,64.7,55.3,60.5,51.0,45.6,93,64,35,29.85,29.72,6,0,13,0.00
2012-6-3,81.1,68.4,51.4,56.7,52.7,47.7,90,60,38,29.89,29.74,6,1,13,0.00
2012-6-4,82.2,73.6,63.9,59.7,55.3,50.4,76,54,35,29.74,29.59,5,1,12,0.00
2012-6-5,74.6,67.2,60.4,58.7,54.7,49.6,92,66,44,29.84,29.66,6,1,11,0.02
2012-6-6,66.8,60.8,55.0,58.1,55.5,53.0,93,83,66,29.97,29.83,2,0,10,0.65
2012-6-7,78.5,67.6,55.7,59.4,56.0,52.5,94,69,43,29.99,29.92,2,0,6,0.00
2012-6-8,83.6,70.9,56.9,58.0,53.5,47.6,90,59,29,30.00,29.91,2,0,10,0.00
2012-6-9,88.4,73.9,58.3,63.1,58.0,53.9,87,61,34,30.01,29.92,2,0,8,0.00
2012-6-10,84.9,74.2,62.9,65.6,61.6,58.2,87,66,41,30.08,29.98,2,0,6,0.00
2012-6-11,84.7,73.5,68.4,73.4,68.4,62.8,93,85,64,30.05,29.91,6,0,10,0.41
2012-6-12,84.7,73.9,69.1,73.4,69.6,66.6,94,87,64,29.91,29.76,2,0,10,0.47
2012-6-13,84.9,75.7,66.8,69.4,64.5,55.1,95,70,40,29.96,29.80,6,0,11,0.02
2012-6-14,80.3,71.5,61.5,62.2,57.4,50.9,80,62,46,30.10,29.96,6,1,13,0.00
2012-6-15,79.6,70.7,61.3,61.0,59.2,56.5,93,69,47,30.17,30.07,7,1,12,0.00
2012-6-16,79.2,69.2,55.9,56.7,54.1,51.4,89,61,38,30.22,30.07,7,1,12,0.00
2012-6-17,80.7,70.2,57.5,62.6,57.5,53.5,89,66,44,30.12,29.95,5,0,7,0.00
2012-6-18,87.2,75.9,65.6,69.7,62.6,54.7,76,64,48,30.00,29.95,3,0,7,0.00
2012-6-19,90.1,78.0,66.6,71.9,66.3,62.6,87,69,46,30.08,30.00,3,0,7,0.00
2012-6-20,92.5,81.6,68.3,72.3,68.2,65.4,92,66,43,30.08,29.96,2,0,7,0.00
2012-6-21,94.5,82.3,72.0,73.3,69.7,67.0,85,67,42,29.97,29.80,3,0,6,0.00
2012-6-22,92.5,77.9,69.6,73.2,69.0,66.8,94,76,44,29.84,29.73,7,0,17,0.80
2012-6-23,87.4,77.1,68.8,72.2,67.9,65.1,95,75,49,29.93,29.80,5,0,7,0.07
2012-6-24,89.3,78.6,67.9,71.8,66.9,62.5,93,70,41,29.93,29.82,9,0,9,0.00
2012-6-25,93.2,80.7,68.1,71.7,65.7,56.7,94,63,38,29.83,29.61,6,0,8,0.00
2012-6-26,79.6,71.3,61.5,56.2,49.8,43.5,73,48,29,29.84,29.72,10,1,13,0.00
2012-6-27,85.5,70.8,56.9,55.4,51.9,47.4,83,55,27,29.93,29.82,6,0,11,0.00
2012-6-28,95.9,81.0,64.2,63.4,58.2,53.4,75,49,27,29.94,29.77,3,0,12,0.00
2012-6-29,103.6,88.5,72.5,72.2,65.3,58.9,70,49,29,29.80,29.66,6,0,21,0.00
2012-6-30,102.8,86.9,71.3,72.2,65.3,56.8,73,51,29,29.81,29.73,4,0,7,0.00
2012-7-1,99.2,85.3,75.1,71.2,64.9,57.8,70,52,28,29.91,29.76,8,0,14,0.00
2012-7-2,93.8,79.8,66.9,68.8,64.8,59.8,92,64,33,30.00,29.87,9,1,16,0.18
2012-7-3,98.0,83.9,71.1,74.2,67.3,63.0,87,61,33,29.92,29.83,6,0,10,0.00
2012-7-4,98.2,84.8,71.6,69.4,67.0,62.8,87,58,33,29.90,29.80,5,0,8,0.00
2012-7-5,99.0,85.3,74.2,72.6,67.6,63.6,85,58,34,29.86,29.77,6,0,14,0.00
2012-7-6,97.8,82.5,69.9,72.6,68.2,64.1,83,64,40,29.89,29.80,3,0,9,0.00
2012-7-7,101.0,88.6,73.5,73.1,68.7,64.8,86,56,32,29.91,29.82,5,0,10,0.00
2012-7-8,100.2,88.4,75.3,73.4,69.9,65.2,82,57,34,29.87,29.72,4,0,9,0.00
2012-7-9,95.4,83.0,71.5,71.7,69.5,66.6,94,67,43,29.89,29.74,5,0,18,3.24
2012-7-10,83.4,75.8,71.6,72.6,69.9,67.5,94,83,62,29.96,29.86,2,0,8,0.01
2012-7-11,82.4,71.5,66.0,71.6,66.8,60.4,95,85,66,30.07,29.94,6,0,11,0.28
2012-7-12,79.2,73.3,66.4,67.6,65.0,60.4,85,76,65,30.10,30.04,4,0,8,0.00
2012-7-13,87.8,76.7,69.9,72.3,69.7,67.2,93,80,55,30.12,30.05,3,0,7,0.02
2012-7-14,86.1,77.4,72.7,75.8,71.9,68.7,93,84,65,30.14,30.02,3,0,7,0.16
2012-7-15,92.3,80.8,70.9,76.4,71.8,68.8,94,76,49,30.12,29.98,3,0,7,0.00
2012-7-16,93.6,80.9,73.5,73.7,70.8,66.4,90,73,45,29.99,29.83,6,0,11,0.00
2012-7-17,94.3,83.0,71.3,74.1,70.0,64.8,92,67,38,29.89,29.79,2,0,6,0.00
2012-7-18,95.9,83.7,72.8,74.8,71.1,68.9,91,68,43,29.90,29.80,3,0,8,0.00
2012-7-19,94.9,82.2,72.7,74.6,70.9,68.7,89,70,45,29.92,29.83,2,0,12,0.00
2012-7-20,90.1,78.1,72.3,75.0,71.3,69.5,93,81,54,29.88,29.79,4,0,8,1.12
2012-7-21,89.5,78.5,72.1,77.4,72.5,69.6,94,83,59,30.00,29.85,3,0,11,0.47
2012-7-22,86.5,77.7,72.5,76.5,72.9,70.4,94,86,66,30.11,29.99,3,0,4,0.01
2012-7-23,95.6,83.4,73.7,75.7,72.1,68.1,94,71,43,30.08,29.92,5,0,8,0.00
2012-7-24,93.6,81.6,74.0,75.6,69.5,63.4,88,68,53,29.92,29.76,11,1,22,0.00
2012-7-25,88.2,79.2,73.0,73.9,69.5,64.5,87,73,53,29.89,29.81,3,0,7,0.00
2012-7-26,97.5,85.7,75.1,75.2,72.5,70.2,92,67,43,29.81,29.68,3,0,12,0.00
2012-7-27,97.8,83.7,73.5,75.6,71.3,63.5,91,69,41,29.85,29.73,19,0,19,0.03
2012-7-28,94.9,81.4,70.8,74.7,69.7,64.8,95,72,38,29.91,29.80,5,0,11,0.22
2012-7-29,89.9,79.3,68.9,71.3,65.6,58.2,95,67,36,29.93,29.85,2,0,7,0.01
2012-7-30,88.4,78.4,70.4,71.7,68.0,63.8,91,72,45,29.95,29.86,5,0,11,0.00
2012-7-31,86.5,76.4,67.3,71.0,68.1,65.0,94,77,54,29.92,29.81,1,0,6,0.00
2012-8-1,93.6,82.3,71.5,71.4,68.8,62.4,93,66,40,29.84,29.73,5,0,8,0.00
2012-8-2,93.2,82.0,70.6,72.3,67.9,63.0,84,64,39,29.85,29.75,3,0,8,0.00
2012-8-3,91.2,78.7,68.8,73.9,70.2,66.5,94,77,52,29.99,29.84,2,0,11,0.57
2012-8-4,90.5,79.4,71.5,75.1,71.0,67.7,95,77,51,30.11,29.97,3,0,10,0.01
2012-8-5,91.0,79.9,72.0,73.2,71.2,69.6,93,76,53,30.14,30.02,8,0,11,0.00
2012-8-6,88.8,81.0,73.5,72.5,70.8,67.8,92,73,51,30.05,29.91,3,0,8,0.27
2012-8-7,84.9,77.2,73.2,74.8,72.0,70.1,94,85,68,29.96,29.88,1,0,6,0.06
2012-8-8,91.0,75.9,68.4,74.2,69.4,65.4,93,81,54,29.92,29.85,5,0,11,0.11
2012-8-9,88.4,77.4,68.1,73.6,70.1,66.0,94,79,58,29.92,29.78,2,0,11,0.12
2012-8-10,83.6,75.6,69.8,73.1,70.5,68.0,94,85,68,29.79,29.72,4,0,7,0.08
2012-8-11,81.1,73.2,67.6,73.4,69.6,65.1,94,89,73,29.86,29.76,2,0,11,1.93
2012-8-12,85.3,74.5,64.8,67.0,63.9,60.0,95,72,44,29.94,29.86,3,0,7,0.00
2012-8-13,88.2,75.8,65.3,71.8,65.1,62.9,94,72,46,29.98,29.86,4,0,7,0.00
2012-8-14,89.3,77.6,66.0,70.0,66.2,62.3,90,70,46,29.88,29.77,2,0,7,0.00
2012-8-15,86.7,76.6,70.1,69.6,67.2,63.5,90,74,47,29.89,29.78,2,0,7,0.00
2012-8-16,85.9,75.1,64.7,67.1,63.5,59.4,91,69,42,29.97,29.85,3,0,7,0.00
2012-8-17,89.3,76.0,65.2,70.9,66.0,62.8,93,74,45,29.90,29.75,3,0,7,0.00
2012-8-18,81.8,74.1,67.1,69.4,66.5,64.3,93,78,57,29.85,29.77,3,0,8,0.00
2012-8-19,72.5,70.0,67.8,69.4,67.4,65.7,94,91,82,29.83,29.78,2,0,10,2.41
2012-9-13,59.6,59.5,59.2,55.3,55.0,54.8,86,85,84,30.21,30.20,0,0,0,0.00
2012-9-14,79.0,67.9,58.6,65.6,60.9,55.0,93,79,54,30.22,30.08,3,0,7,0.00
2012-9-15,79.6,70.1,61.2,64.8,61.3,58.2,93,75,56,30.12,30.02,3,0,11,0.00
2012-9-16,67.1,63.2,59.2,61.4,59.4,57.2,93,88,77,30.11,30.01,3,0,7,0.38
2012-9-17,75.8,68.4,61.6,69.6,64.8,59.3,94,89,76,30.04,29.80,3,0,7,0.06
2012-9-18,75.1,71.3,67.1,72.6,68.7,65.3,94,91,84,29.80,29.63,7,1,16,1.06
2012-9-19,70.9,64.0,56.6,65.1,56.2,53.7,94,77,57,30.08,29.78,5,0,11,0.00
2012-9-20,75.1,63.2,53.3,59.1,55.5,51.6,95,78,49,30.11,29.99,2,0,6,0.00
2012-9-21,80.3,67.3,55.9,63.7,59.7,54.0,95,79,55,30.02,29.91,3,0,7,0.00
2012-9-22,84.3,71.3,61.8,66.9,62.6,59.7,93,76,45,29.91,29.80,4,0,13,0.02
2012-9-23,71.3,62.2,53.1,61.7,48.1,35.1,90,64,29,30.09,29.91,4,0,11,0.00
2012-9-24,68.3,57.7,48.6,47.7,42.6,37.9,87,59,35,30.19,30.09,6,0,12,0.00
2012-9-25,76.1,61.3,47.0,58.7,52.5,44.2,94,75,50,30.18,30.08,3,0,7,0.00
2012-9-26,80.9,67.0,55.6,63.2,58.5,53.4,93,76,51,30.15,30.07,1,0,6,0.00
2012-9-27,83.2,69.0,57.6,64.5,59.9,55.6,94,75,46,30.12,30.00,2,0,6,0.00
2012-9-28,83.0,68.9,60.4,66.7,62.1,57.0,94,81,51,30.02,29.91,5,0,5,0.14
2012-9-29,66.9,63.7,60.5,65.1,62.1,58.8,95,94,94,29.92,29.82,1,0,5,0.80
2012-9-30,70.9,62.2,56.6,59.2,56.6,53.9,95,83,56,29.87,29.78,2,0,6,0.00
2012-10-1,62.3,60.9,59.3,60.8,58.7,56.1,95,92,81,29.86,29.78,4,1,11,0.06
2012-10-2,82.2,72.2,62.4,75.9,69.0,61.0,95,90,73,29.88,29.73,3,0,8,0.21
2012-10-3,81.8,74.1,69.8,71.7,67.3,62.9,95,80,57,30.10,29.88,2,0,7,0.00
2012-10-4,76.8,69.0,61.3,64.2,61.2,58.8,92,77,54,30.16,30.07,2,0,7,0.00
2012-10-5,76.7,65.5,55.4,58.9,56.3,52.4,94,75,43,30.13,29.93,1,0,6,0.00
2012-10-6,79.2,67.0,55.4,63.2,58.0,51.2,95,75,51,29.94,29.81,5,0,8,0.06
2012-10-7,55.3,52.2,49.6,52.7,49.2,47.0,93,90,84,30.10,29.91,6,0,13,0.65
2012-10-8,50.4,47.4,45.4,46.8,43.9,42.6,93,88,77,30.19,30.09,3,1,11,0.05
2012-10-9,58.6,51.8,45.5,52.4,47.9,43.6,94,87,74,30.13,30.01,3,0,7,0.01
2012-10-10,68.3,59.2,49.9,53.2,50.0,44.7,91,73,55,30.07,29.92,4,0,12,0.00
2012-10-11,62.9,52.4,42.6,46.3,42.0,36.4,90,70,40,30.25,30.08,3,0,7,0.00
2012-10-12,65.6,52.6,44.8,50.0,44.3,40.1,93,76,40,30.19,30.11,5,0,12,0.00
2012-10-24,57.2,56.9,56.7,53.1,52.7,52.2,87,86,85,30.06,30.05,0,0,0,0.00
2012-10-25,76.5,62.5,51.0,59.5,54.5,49.0,95,77,49,30.10,30.01,3,0,6,0.00
2012-10-26,65.8,59.5,53.9,59.0,56.2,52.2,95,89,76,30.08,29.87,3,0,8,0.00
2012-10-27,68.3,63.3,60.1,59.6,55.5,48.7,93,77,60,29.86,29.66,8,1,17,0.00
2012-10-28,66.8,59.9,52.5,50.3,46.9,39.9,78,63,46,29.66,29.52,10,2,19,0.00
2012-10-29,52.3,46.6,43.5,39.7,33.8,29.0,72,61,54,29.55,29.28,13,4,29,0.00
2012-10-30,49.2,44.8,40.6,32.1,29.5,27.1,71,55,44,29.55,29.25,12,3,25,0.01
2012-10-31,52.5,44.9,35.8,35.0,33.0,30.8,83,64,47,29.72,29.55,7,1,17,0.00
2012-11-1,54.7,47.5,40.6,36.0,33.9,28.9,75,60,47,29.81,29.70,7,1,14,0.00
2012-11-2,60.1,47.6,36.6,36.7,30.7,26.5,75,53,33,29.94,29.78,9,0,16,0.00
2012-11-3,53.8,42.3,34.3,37.6,32.6,28.8,83,69,51,30.04,29.93,6,0,8,0.00
2012-11-4,55.9,48.2,42.3,41.0,38.0,32.8,82,68,56,30.00,29.91,4,0,7,0.01
2012-11-5,53.3,43.7,35.9,35.0,31.0,26.7,81,63,38,30.05,29.96,5,0,10,0.00
2012-11-6,42.5,38.0,34.3,31.6,30.2,28.8,86,74,62,30.10,29.90,5,0,12,0.00
2012-11-7,51.7,40.7,31.6,33.2,30.4,27.5,86,68,41,29.91,29.78,4,0,8,0.00
2012-11-8,60.5,46.2,33.4,33.3,24.8,16.4,89,51,18,30.08,29.89,7,1,14,0.00
2012-11-9,62.7,47.0,32.5,34.9,29.3,24.8,81,54,26,30.20,30.07,7,0,10,0.00
2012-11-10,71.3,51.9,37.8,38.0,34.1,31.0,80,55,23,30.30,30.19,3,0,7,0.00
2012-11-11,71.6,55.0,40.9,51.0,42.3,35.0,87,65,39,30.41,30.29,2,0,8,0.00
2012-11-12,63.5,58.6,52.0,60.2,55.9,50.0,94,91,78,30.33,30.08,3,0,7,0.11
2012-11-13,61.8,47.5,36.0,59.8,39.8,30.2,93,76,45,30.37,30.07,7,1,13,0.10
2012-11-14,47.1,40.3,32.8,35.3,28.8,24.4,91,64,49,30.45,30.32,10,1,13,0.00
2012-11-15,43.5,39.8,34.9,39.2,32.1,27.1,89,74,58,30.31,30.21,5,0,8,0.03
2012-11-16,53.8,41.6,32.1,38.1,32.9,30.0,94,73,43,30.35,30.22,7,0,10,0.00
2012-11-17,54.1,44.1,35.3,30.6,27.3,23.6,80,54,32,30.45,30.35,7,1,17,0.00
2012-11-18,55.1,49.0,43.1,41.1,38.2,30.5,76,66,58,30.43,30.31,12,2,14,0.00
2012-11-19,57.3,49.8,42.3,42.7,40.7,38.1,86,71,57,30.31,30.15,7,1,13,0.00
2012-11-20,57.3,46.7,39.3,42.8,39.3,36.3,90,77,54,30.15,30.00,3,0,8,0.00
2012-11-21,59.6,45.4,35.6,42.1,34.8,29.9,94,70,34,30.14,30.04,6,0,11,0.00
2012-11-22,59.6,44.7,35.2,31.7,28.9,25.3,81,57,27,30.21,30.11,6,0,11,0.00
2012-11-23,65.2,49.3,32.5,41.0,32.1,26.5,80,54,33,30.11,29.83,13,1,18,0.00
2012-11-24,48.2,41.5,29.7,29.2,20.8,14.9,59,44,27,30.08,29.85,11,3,17,0.00
2012-11-25,51.1,35.8,21.4,21.9,19.0,15.8,80,53,27,30.13,29.97,9,1,11,0.00
2012-11-26,64.8,45.7,29.3,28.2,24.4,21.1,77,47,21,30.15,30.02,5,0,8,0.00
2012-11-27,52.5,46.1,41.6,44.0,37.9,27.3,92,74,47,30.19,30.05,6,0,7,0.11
2012-11-28,51.6,40.8,30.9,38.3,30.0,22.0,93,69,32,30.34,30.18,6,1,10,0.00
2012-11-29,53.6,37.6,25.3,32.1,26.1,21.0,86,66,35,30.43,30.31,3,0,7,0.00
2012-11-30,61.3,43.8,29.7,35.5,31.5,26.9,91,66,31,30.34,30.22,7,1,11,0.00
2012-12-1,64.5,47.1,35.9,44.3,38.3,32.5,93,74,42,30.35,30.25,7,0,7,0.00
2012-12-2,67.6,51.8,40.2,49.2,44.5,36.8,93,78,51,30.33,30.16,7,1,13,0.00
2012-12-3,73.7,58.6,50.1,51.8,49.9,47.3,92,75,45,30.23,30.13,2,0,7,0.00
2012-12-4,72.5,57.1,46.4,53.4,48.6,44.5,94,76,39,30.24,30.08,8,1,11,0.00
2012-12-5,60.5,55.4,41.3,55.7,45.6,27.0,90,71,46,30.15,30.02,2,0,11,0.02
2012-12-6,50.4,44.1,38.0,36.5,31.7,26.9,73,62,49,30.27,30.14,5,1,11,0.00
2012-12-7,49.1,46.9,44.9,47.5,40.3,32.7,94,79,62,30.15,29.95,2,0,5,0.24
2012-12-8,63.7,53.4,48.2,53.4,49.5,46.6,95,87,67,29.98,29.89,6,1,11,0.00
2012-12-9,66.9,58.3,50.5,61.7,55.6,48.8,95,91,75,30.05,29.89,5,0,6,0.09
2012-12-10,66.3,61.5,57.8,58.8,57.8,56.4,95,88,73,29.89,29.59,9,1,13,0.01
2012-12-11,62.4,51.7,41.2,57.2,39.3,27.6,84,63,50,30.10,29.62,6,1,11,0.00
2012-12-12,46.5,42.6,39.2,31.0,28.9,27.1,68,58,51,30.28,30.10,8,2,14,0.00
2012-12-13,50.1,40.6,29.7,28.1,24.8,20.8,73,54,36,30.36,30.24,7,1,16,0.00
2012-12-14,57.3,38.4,26.3,28.9,25.4,21.3,85,63,28,30.33,30.19,5,0,7,0.00
2012-12-15,58.6,45.0,35.5,33.1,28.8,25.8,73,55,29,30.22,30.01,3,0,6,0.00
2012-12-16,56.9,52.0,46.8,53.6,47.4,32.0,94,85,55,30.00,29.83,6,1,10,0.21
2012-12-17,57.5,54.4,50.4,54.7,52.2,48.7,95,92,87,29.83,29.57,6,1,12,0.11
2012-12-18,57.3,52.0,38.5,53.7,40.9,29.7,93,68,38,29.85,29.56,13,2,22,0.00
2012-12-19,62.3,47.6,38.2,38.7,32.7,26.8,85,58,35,30.06,29.82,11,1,14,0.00
2012-12-20,59.3,47.4,37.8,57.6,41.5,33.2,94,80,65,30.09,29.42,11,2,22,0.37
2012-12-21,49.9,40.1,36.2,44.3,25.1,18.8,82,55,40,29.79,29.44,26,7,26,0.00
2012-12-22,50.4,39.3,32.5,19.9,16.9,11.8,55,42,21,30.06,29.79,14,4,22,0.00
2012-12-23,55.1,39.5,26.1,26.4,19.2,13.9,73,47,20,30.10,29.96,5,0,11,0.00
2012-12-24,46.4,43.9,40.5,44.8,38.3,25.9,94,81,55,29.96,29.83,2,0,7,0.24
2012-12-25,55.4,47.5,42.5,44.5,42.3,40.6,95,83,58,30.05,29.86,7,1,13,0.00
2012-12-26,45.2,40.5,36.9,41.6,37.7,34.0,93,90,77,29.98,29.42,8,2,20,1.21
2012-12-27,47.6,38.7,32.2,33.4,28.1,23.9,85,66,49,30.05,29.59,12,3,17,0.00
2012-12-28,42.5,34.7,25.7,29.7,25.6,21.6,88,70,53,30.15,29.94,3,0,8,0.00
2012-12-29,49.8,40.7,35.8,39.1,31.8,20.9,93,72,51,29.93,29.62,17,3,26,0.15
2012-12-30,45.1,36.4,27.5,21.6,18.0,13.9,69,48,29,30.35,29.93,11,3,21,0.00
2012-12-31,49.9,38.7,25.4,27.3,22.7,18.4,78,54,36,30.33,30.03,8,1,14,0.00
2013-1-1,49.1,46.5,42.9,47.5,38.3,26.2,94,75,45,30.03,29.86,8,1,13,0.23